Wind_Speed
14 13 12 9 7 4 3 4 3 1 3 3 3 7 12 13 12 11 11 7 8 8 12 10 7 6 13 12 9 28 22 15 18 16 18 18 17 11 14 15 17 16 16 18 14
15 14 13 11 9 7 5 4 5 3 2 2 2 4 8 10 10 9 8 7 5 8 11 11 7 11 6 6 15 16 18 19 20 17 18 16 11 10 11 13 15 14 12 14 11
14 14 13 12 11 9 8 6 6 6 4 3 2 3 5 7 9 9 7 5 7 7 11 5 9 10 13 19 17 14 13 17 17 19 18 17 18 20 12 11 12 11 11 10 10
13 14 14 13 12 11 10 8 7 8 6 5 3 2 4 6 7 7 8 6 7 6 6 6 6 8 7 15 12 11 9 13 15 16 17 17 16 18 17 12 10 9 7 8 7
12 13 13 14 14 13 12 11 9 9 8 7 5 3 3 5 7 6 8 7 3 4 3 7 1 8 10 15 13 8 8 11 11 12 14 15 12 12 14 15 12 9 6 6 7
10 11 12 14 14 14 14 13 12 11 11 10 8 5 4 3 4 7 7 8 7 3 2 3 2 6 7 15 13 8 6 7 6 9 11 11 9 9 9 11 11 12 10 8 6
9 10 11 12 13 14 15 15 14 13 12 13 12 9 6 5 5 5 8 9 9 7 4 3 4 3 2 8 7 3 9 4 5 7 8 8 5 11 6 8 9 10 12 11 9
9 11 12 13 13 13 15 16 17 16 15 14 14 13 10 7 7 5 5 9 10 10 8 6 4 1 2 6 3 7 3 7 10 9 9 7 11 9 8 7 7 8 9 8 9
11 11 12 14 15 15 15 16 18 19 18 17 16 16 15 12 9 8 7 6 7 8 9 8 6 5 5 4 5 17 8 7 1 4 4 4 5 6 9 7 6 5 6 7 7
14 13 12 12 14 16 17 17 18 19 21 20 20 18 16 15 14 12 10 9 8 8 7 6 8 8 9 8 8 6 6 9 7 4 2 5 3 4 7 7 5 5 5 6 8
17 17 15 14 12 13 16 19 20 20 20 22 21 21 19 19 18 16 14 12 11 10 9 7 10 13 9 13 11 10 6 10 11 8 10 7 5 1 3 2 5 8 9 9 7
17 18 18 17 16 14 13 15 19 21 20 21 22 23 23 23 21 19 18 17 15 14 12 10 11 14 16 5 12 14 11 9 15 11 4 3 6 1 5 6 0 3 6 8 8
11 16 18 19 18 17 17 16 17 18 21 21 22 22 21 23 25 23 21 20 18 17 14 16 19 18 18 9 8 18 21 18 20 14 7 7 4 9 6 10 10 6 7 7 4
12 13 14 16 19 21 21 19 20 18 19 20 20 23 20 23 26 21 24 23 21 19 17 18 22 20 15 12 12 17 19 20 21 21 11 17 9 8 10 11 14 13 8 13 15
18 17 16 16 17 17 18 21 20 21 21 21 22 20 19 22 24 24 22 23 21 22 21 22 26 24 15 21 17 19 12 10 13 15 17 15 12 4 14 14 14 23 22 16 14
23 22 21 19 19 20 19 21 21 21 20 23 18 17 20 22 24 20 20 22 21 18 17 23 24 22 17 20 15 19 17 14 15 15 11 7 10 9 17 18 19 17 20 23 14
24 26 26 24 24 20 20 20 21 19 20 20 21 17 16 20 22 20 19 20 22 22 20 22 23 20 23 20 21 21 20 15 14 8 4 3 6 9 16 22 29 25 28 20 29
28 27 27 30 26 24 25 24 21 17 18 13 19 18 15 20 22 19 19 19 20 21 23 16 22 23 18 17 16 15 13 15 15 11 8 2 17 18 21 27 30 33 35 37 34
31 29 29 30 30 31 31 29 13 16 13 7 23 18 11 15 20 17 17 19 25 21 19 21 25 25 18 14 17 13 14 10 8 16 16 7 10 17 21 26 30 33 35 37 40
34 31 31 31 31 34 35 26 19 24 23 6 23 21 9 20 18 13 17 26 25 19 21 19 20 19 15 12 15 15 15 12 14 18 23 7 12 17 23 31 36 39 38 37 38
28 30 30 27 30 35 34 24 25 30 25 13 19 16 18 16 16 14 15 24 26 20 20 21 22 24 20 17 20 19 19 19 19 18 21 19 7 11 19 28 35 38 39 39 39
25 28 28 27 30 31 31 24 29 35 13 23 24 21 16 19 12 15 21 29 26 19 22 24 20 22 23 24 25 22 22 25 23 21 22 22 9 18 26 30 36 38 38 45 49
21 23 23 23 27 30 30 28 40 30 16 29 31 28 22 27 23 28 32 31 29 17 16 19 22 21 21 14 26 30 31 28 28 25 22 25 17 23 29 37 40 45 50 51 54
20 20 24 23 24 27 31 38 39 24 20 25 25 33 32 28 36 35 35 34 31 21 21 23 22 23 23 26 31 34 36 33 27 30 32 30 24 26 34 29 34 43 54 58 62
19 25 25 19 22 25 26 41 27 22 26 20 23 27 36 32 36 35 35 36 34 26 25 24 24 28 29 25 26 30 34 34 32 31 31 30 38 49 49 50 50 50 50 53 56
19 16 13 16 18 27 33 33 24 13 23 31 28 30 27 26 29 28 30 34 38 26 23 25 26 31 30 29 31 35 38 38 40 37 40 44 48 54 56 60 63 64 63 64 68
16 17 17 21 24 36 35 35 35 24 22 29 30 23 23 18 24 27 25 27 30 28 22 27 28 30 30 31 33 33 34 40 44 48 47 50 55 57 58 57 57 60 62 63 66
Wind_Direction
207 209 210 214 220 222 238 222 221 108 76 86 89 86 91 109 133 137 131 116 81 72 57 75 76 129 59 59 65 63 70 53 52 50 64 58 52 58 65 85 82 71 71 74 72
214 210 210 212 218 221 233 231 223 205 124 114 117 122 107 118 127 136 131 129 92 73 74 39 107 125 41 68 68 57 62 58 53 42 46 47 53 92 83 69 70 75 73 77 75
221 214 214 211 215 217 221 234 227 211 178 177 155 133 141 126 140 148 145 162 107 95 99 69 115 91 91 58 75 61 48 55 53 41 36 46 45 75 86 84 81 82 80 85 93
230 224 217 214 215 216 214 224 229 229 199 197 195 131 160 162 150 151 166 181 118 95 74 107 129 86 83 64 78 71 56 56 56 47 49 27 46 46 60 67 73 76 68 76 70
232 234 228 222 217 217 215 215 222 227 220 219 207 195 127 168 179 172 180 185 178 87 93 139 145 118 78 59 66 70 64 68 57 41 27 32 37 44 50 56 58 60 73 82 91
231 234 235 228 222 221 222 217 216 222 221 218 222 212 172 170 199 189 187 192 205 218 89 190 127 84 110 76 66 75 86 78 71 27 32 32 58 47 53 59 57 62 62 68 72
238 239 237 234 227 225 225 224 220 220 223 223 221 217 198 194 195 196 205 198 205 220 201 164 144 47 43 97 79 34 23 68 348 3 35 42 53 40 57 71 61 57 64 64 61
247 247 247 243 240 231 226 224 224 222 220 222 223 220 219 210 206 210 208 213 208 214 226 224 160 174 332 121 31 358 286 339 14 32 80 38 50 46 70 75 60 55 57 68 54
241 244 249 250 248 244 235 227 227 226 223 222 222 220 219 222 216 210 214 217 223 226 222 223 229 181 232 249 183 334 343 50 128 34 33 35 43 46 76 84 69 59 47 50 52
242 244 245 247 245 245 242 236 230 230 229 226 224 224 223 225 228 220 217 216 219 228 223 211 189 179 189 121 287 286 325 351 53 5 30 316 312 359 64 52 46 38 38 34 28
240 241 244 246 247 244 243 243 241 237 236 232 228 230 229 225 226 228 228 223 220 221 225 217 201 193 215 179 231 239 281 308 318 336 327 303 281 28 312 94 12 17 2 13 4
240 238 239 241 244 247 246 241 240 236 238 238 237 235 227 231 232 230 231 231 227 225 224 208 214 216 214 238 215 224 245 307 291 301 337 307 313 271 285 282 17 27 352 353 355
251 242 237 239 240 242 245 246 244 237 236 240 241 239 238 235 236 232 237 235 236 234 225 227 222 220 232 233 237 216 221 235 261 280 311 285 220 286 5 259 267 248 277 296 315
253 252 246 241 239 238 237 237 243 243 242 236 239 240 236 236 238 235 236 236 235 236 235 238 239 239 231 241 226 230 237 239 247 286 302 291 297 286 294 276 279 270 287 297 279
252 250 250 247 247 244 234 244 241 243 245 239 234 240 238 241 242 236 236 240 238 236 235 234 244 246 244 238 249 256 277 266 258 272 285 303 295 248 279 296 300 276 296 274 281
252 250 248 247 246 245 243 238 237 236 243 255 237 238 239 240 243 239 238 237 242 242 244 248 252 261 263 252 246 250 255 248 254 261 300 317 291 230 265 269 282 297 238 250 249
256 252 247 244 243 243 243 244 238 230 232 254 259 237 244 238 245 243 235 231 229 227 222 240 249 246 254 255 250 247 250 243 244 214 187 36 321 234 252 254 267 265 251 250 290
258 254 250 242 241 237 237 239 236 222 236 267 277 256 243 245 240 234 229 229 229 231 235 209 242 240 238 246 243 234 232 225 207 192 130 190 212 230 250 259 263 269 269 272 274
265 257 250 244 237 235 236 233 222 212 156 212 263 275 215 221 243 236 216 216 225 219 231 215 235 241 224 235 238 242 246 254 230 190 162 165 209 239 245 255 262 265 268 271 277
272 265 256 246 236 233 235 230 204 188 169 159 254 257 178 228 242 229 204 232 233 214 216 237 251 253 225 221 240 244 240 236 229 207 185 209 251 240 251 252 262 269 271 273 275
275 269 264 252 241 234 233 222 190 198 184 219 232 199 185 256 277 241 211 236 239 206 219 224 239 256 259 259 250 250 258 248 245 234 215 212 303 259 262 258 257 256 261 265 269
274 265 259 237 232 236 228 214 196 192 200 230 223 170 208 211 248 224 227 240 237 226 230 246 251 256 267 270 273 275 259 250 239 234 223 211 247 242 246 243 245 255 256 254 258
271 266 256 245 235 225 209 187 189 191 209 224 224 193 216 211 212 232 234 237 248 240 244 251 249 253 254 244 255 255 252 248 247 237 231 225 224 229 241 247 252 255 259 260 258
267 260 253 239 226 222 210 182 185 172 218 234 230 210 209 210 214 226 242 247 255 261 255 255 256 252 246 241 250 261 270 269 259 251 239 221 200 231 230 237 252 255 261 264 264
269 252 250 247 223 203 204 181 188 196 220 230 204 211 218 212 234 234 251 260 260 258 260 258 255 255 253 254 260 263 268 270 267 261 258 250 236 230 239 243 247 252 257 261 265
272 267 240 239 222 189 184 190 185 183 203 215 211 217 231 228 236 251 240 255 267 260 262 264 258 258 258 255 247 249 253 263 265 259 257 254 252 251 247 247 252 256 261 267 271
250 238 228 221 203 181 186 189 192 189 206 227 221 218 198 214 218 236 261 272 276 283 271 264 261 261 260 260 259 257 262 260 261 266 262 257 257 260 265 269 268 268 266 267 267
Height
5888 5890 5892 5894 5896 5897 5898 5899 5900 5901 5901 5902 5902 5903 5903 5904 5905 5906 5907 5908 5907 5909 5909 5909 5909 5910 5908 5906 5907 5898 5908 5908 5910 5910 5908 5906 5905 5904 5905 5908 5907 5908 5909 5909 5911
5887 5889 5891 5893 5895 5896 5897 5898 5900 5901 5902 5902 5903 5904 5905 5906 5907 5908 5909 5909 5909 5910 5911 5912 5911 5913 5912 5903 5910 5912 5913 5912 5913 5912 5911 5910 5909 5907 5909 5909 5912 5912 5913 5913 5915
5886 5888 5890 5892 5893 5895 5896 5897 5899 5901 5902 5903 5904 5905 5906 5908 5909 5909 5909 5910 5911 5911 5912 5915 5912 5911 5915 5909 5912 5915 5917 5916 5916 5917 5915 5914 5912 5912 5914 5914 5914 5917 5916 5917 5918
5884 5886 5888 5890 5892 5894 5895 5897 5898 5900 5902 5903 5904 5905 5907 5909 5911 5910 5910 5910 5912 5913 5914 5918 5915 5916 5917 5915 5917 5918 5920 5919 5921 5921 5916 5916 5915 5913 5914 5916 5916 5916 5917 5917 5918
5883 5884 5886 5888 5891 5893 5894 5896 5897 5899 5900 5902 5904 5906 5907 5909 5911 5911 5911 5911 5912 5914 5914 5917 5918 5915 5916 5918 5919 5919 5920 5922 5922 5921 5920 5919 5920 5918 5917 5917 5918 5919 5919 5919 5919
5881 5883 5884 5886 5888 5890 5893 5894 5896 5897 5899 5901 5903 5905 5908 5909 5909 5911 5911 5911 5912 5913 5916 5916 5917 5917 5917 5918 5918 5921 5921 5924 5923 5923 5922 5921 5920 5921 5921 5921 5920 5920 5921 5921 5922
5879 5881 5883 5884 5886 5888 5891 5892 5894 5896 5897 5900 5902 5904 5907 5909 5909 5910 5911 5912 5912 5913 5914 5915 5916 5918 5918 5918 5920 5920 5924 5925 5924 5922 5924 5923 5923 5923 5922 5921 5922 5922 5922 5923 5923
5878 5879 5881 5883 5884 5886 5888 5890 5892 5894 5896 5898 5900 5903 5905 5908 5909 5910 5911 5912 5912 5913 5914 5914 5917 5918 5919 5917 5921 5920 5921 5925 5925 5922 5925 5926 5925 5925 5923 5923 5923 5924 5924 5924 5924
5876 5877 5879 5880 5882 5883 5885 5887 5889 5891 5894 5895 5898 5900 5903 5905 5907 5909 5910 5911 5912 5912 5914 5916 5916 5918 5919 5918 5919 5920 5917 5923 5926 5924 5926 5928 5927 5926 5924 5923 5923 5925 5925 5925 5926
5873 5875 5876 5877 5879 5880 5882 5883 5886 5888 5891 5893 5895 5899 5902 5904 5905 5907 5908 5910 5911 5912 5913 5915 5917 5917 5917 5918 5919 5921 5917 5920 5923 5924 5926 5926 5927 5924 5924 5925 5926 5926 5926 5926 5927
5870 5872 5873 5875 5876 5877 5879 5881 5884 5886 5887 5889 5892 5895 5897 5900 5902 5904 5906 5908 5909 5911 5911 5913 5914 5915 5915 5917 5919 5920 5921 5921 5922 5922 5923 5924 5925 5926 5923 5926 5927 5928 5929 5929 5929
5866 5868 5870 5871 5873 5874 5875 5877 5878 5881 5883 5885 5888 5890 5894 5895 5899 5901 5903 5905 5907 5908 5910 5912 5913 5912 5912 5914 5918 5920 5923 5919 5918 5922 5923 5923 5923 5924 5926 5926 5928 5928 5929 5929 5930
5863 5865 5866 5868 5869 5871 5873 5874 5875 5876 5879 5882 5883 5886 5890 5892 5894 5897 5900 5901 5903 5905 5907 5908 5907 5908 5910 5913 5915 5917 5917 5919 5916 5917 5921 5921 5923 5922 5925 5926 5926 5928 5929 5928 5928
5861 5861 5862 5864 5866 5865 5867 5869 5871 5873 5875 5878 5880 5882 5885 5886 5889 5894 5894 5898 5900 5901 5903 5904 5904 5906 5910 5911 5913 5912 5913 5914 5916 5915 5921 5918 5921 5920 5922 5924 5925 5924 5925 5925 5926
5857 5857 5859 5860 5861 5862 5864 5865 5867 5869 5870 5874 5874 5878 5880 5882 5886 5887 5891 5893 5895 5896 5899 5899 5899 5902 5908 5907 5911 5911 5916 5918 5917 5917 5917 5918 5919 5919 5918 5919 5922 5920 5919 5922 5921
5851 5852 5853 5856 5856 5857 5859 5859 5862 5865 5866 5865 5872 5873 5876 5877 5879 5884 5885 5888 5890 5893 5894 5894 5897 5900 5903 5904 5908 5908 5910 5913 5913 5914 5917 5917 5916 5915 5912 5916 5918 5918 5918 5920 5913
5845 5846 5848 5849 5850 5852 5853 5855 5858 5860 5862 5863 5864 5869 5871 5873 5874 5877 5881 5882 5884 5887 5889 5890 5892 5896 5897 5899 5901 5903 5905 5908 5911 5912 5912 5914 5914 5912 5912 5912 5911 5915 5915 5913 5912
5837 5839 5841 5842 5845 5847 5847 5849 5853 5857 5860 5861 5862 5864 5867 5867 5869 5873 5875 5877 5880 5881 5884 5885 5888 5891 5894 5895 5896 5899 5901 5904 5903 5905 5911 5909 5909 5909 5913 5912 5914 5914 5914 5911 5911
5829 5831 5832 5833 5837 5839 5841 5843 5852 5853 5855 5862 5859 5861 5863 5863 5866 5868 5870 5871 5874 5878 5882 5880 5882 5885 5891 5891 5894 5897 5899 5903 5904 5907 5910 5910 5912 5909 5907 5906 5906 5908 5909 5909 5909
5820 5821 5822 5824 5827 5830 5832 5841 5846 5848 5850 5856 5857 5860 5862 5861 5863 5864 5866 5865 5868 5875 5876 5879 5881 5882 5886 5889 5890 5892 5895 5898 5899 5903 5908 5907 5905 5906 5901 5900 5900 5901 5904 5905 5906
5810 5809 5812 5816 5818 5820 5826 5837 5842 5843 5844 5849 5851 5856 5860 5861 5860 5862 5862 5862 5863 5870 5872 5875 5877 5877 5880 5884 5885 5888 5889 5892 5894 5897 5901 5901 5898 5900 5897 5894 5892 5892 5896 5899 5901
5800 5799 5801 5804 5809 5814 5820 5830 5834 5834 5837 5843 5848 5852 5855 5858 5858 5858 5855 5854 5858 5866 5868 5870 5875 5876 5876 5876 5878 5880 5881 5884 5887 5891 5893 5896 5895 5894 5887 5881 5877 5877 5882 5884 5884
5792 5791 5794 5796 5801 5805 5810 5816 5822 5824 5827 5833 5841 5845 5846 5851 5853 5850 5849 5850 5852 5860 5863 5865 5866 5869 5871 5872 5868 5869 5871 5875 5877 5882 5887 5890 5887 5883 5879 5873 5871 5870 5872 5874 5873
5785 5785 5784 5788 5792 5798 5805 5809 5815 5818 5822 5826 5834 5838 5839 5842 5843 5844 5843 5845 5848 5854 5856 5857 5859 5862 5863 5862 5861 5860 5862 5866 5871 5873 5875 5881 5881 5867 5863 5858 5860 5862 5861 5861 5861
5778 5776 5779 5782 5787 5793 5804 5807 5808 5813 5818 5823 5825 5828 5831 5838 5836 5840 5839 5838 5842 5847 5849 5852 5854 5853 5855 5857 5858 5857 5856 5857 5860 5864 5866 5870 5867 5855 5849 5850 5852 5851 5851 5849 5848
5773 5773 5777 5778 5784 5790 5797 5800 5803 5810 5814 5816 5819 5823 5827 5831 5832 5830 5833 5833 5832 5843 5844 5844 5845 5845 5847 5849 5849 5847 5848 5850 5851 5852 5851 5850 5847 5842 5841 5842 5842 5844 5846 5846 5842
5765 5767 5771 5774 5778 5785 5789 5788 5799 5802 5809 5810 5815 5818 5818 5822 5822 5824 5830 5829 5828 5831 5837 5837 5837 5837 5838 5838 5838 5842 5842 5840 5838 5833 5837 5835 5831 5833 5834 5837 5839 5835 5830 5834 5831